Flag for Germany Weather past 2 weeks in Papenburg, Lower Saxony, Germany

Now
55 °F

Low clouds.


Feels Like: 53 °F
Forecast: 44 / 57 °F
Wind: 6 mph from Southwest

Location: Emden-Koenigspolder

Current Time: Oct 21, 2014 at 3:27:35 AM

Latest Report: Oct 21, 2014 at 3:00 AM


Visibility: 9 mi

Pressure: 29.77 "Hg

Humidity: 92%

Dew point: 53 °F

Location of PapenburgLocation

Historic Weather in Papenburg — Graph

°F

Papenburg temperature yesterday

Maximum temperature yesterday: 60 °F (at 2:00 AM)
Minimum temperature yesterday: 54 °F (at 10:00 PM)
Average temperature yesterday: 58 °F

Past Weeks' High & Low Weather Summary

 TemperatureHumidityPressure
High67 °F (Oct 19, 1:00 PM)100% (Oct 11, 7:00 AM)30.05 "Hg (Oct 11, 7:00 AM)
Low42 °F (Oct 11, 8:00 AM)57% (Oct 10, 3:00 PM)29.41 "Hg (Oct 7, 1:00 PM)
Average56 °F87%29.76 "Hg
* Reported Oct 6 2:00 AM — Oct 21 2:00 AM, Papenburg, Weather by CustomWeather, © 2014

Note: Actual official high and low records may vary slightly from our data, if they occured in-between our weather recording intervals... More about our weather records

Advertising

Papenburg weather history for previous 24 hours

 ConditionsComfort  
Time TempWeatherWind HumidityBarometerVisibility
2:00 AM
Oct 21
54 °FDrizzle. Low clouds.5 mph92%29.78 "Hg14 mi
1:00 AM54 °FOvercast.5 mph91%29.80 "Hg19 mi
12:00 AM54 °FOvercast.3 mph87%29.81 "Hg28 mi
11:00 PM
Oct 20
54 °FOvercast.3 mph89%29.83 "Hg22 mi
10:00 PM54 °FDrizzle. Overcast.5 mph88%29.84 "Hg25 mi
9:00 PM55 °FDrizzle. Low clouds.3 mph92%29.85 "Hg18 mi
8:00 PM57 °FLight rain. Overcast.6 mph82%29.86 "Hg12 mi
7:00 PM57 °FOvercast.5 mph79%29.85 "Hg22 mi
6:00 PM58 °FOvercast.5 mph77%29.86 "Hg31 mi
4:00 PM59 °FOvercast.6 mph76%29.89 "Hg22 mi
3:00 PM58 °FOvercast.8 mph82%29.90 "Hg19 mi
2:00 PM60 °FOvercast.8 mph71%29.90 "Hg19 mi
1:00 PM60 °FOvercast.8 mph74%29.90 "Hg25 mi
12:00 PM59 °FOvercast.8 mph77%29.90 "Hg13 mi
10:00 AM57 °FPassing clouds.6 mph86%29.88 "Hg13 mi
9:00 AM57 °FLight freezing rain. Low clouds.6 mph91%29.86 "Hg9 mi
8:00 AM57 °FOvercast.7 mph86%29.84 "Hg19 mi
7:00 AM57 °FPassing clouds.6 mph84%29.84 "Hg17 mi
5:00 AM57 °FPassing clouds.6 mph87%29.83 "Hg17 mi
4:00 AM58 °FPassing clouds.7 mph84%29.84 "Hg16 mi
3:00 AM58 °FLight rain. Low clouds.6 mph89%29.84 "Hg5 mi
Weather by CustomWeather, © 2014

See weather overviewHow to use our weather pages